IW3HBX-3 Weather Reports


time (UTC)temp
F
wind
direction
speed
knots
gust
knots
rain 1hr
in
rain 24hr
in
rain mn
in
humidity
%
barometer
mb
20260507210656 61 59 0.0 1.7 0.00 0.00 0.00 79 1015.9
20260507210156 61 66 2.6 3.5 0.00 0.00 0.00 79 1015.9
20260507205656 61 72 0.9 1.7 0.00 0.00 0.00 78 1015.9
20260507205155 61 66 0.9 1.7 0.00 0.00 0.00 77 1015.8
20260507204655 61 66 1.7 2.6 0.00 0.00 0.00 77 1015.8
20260507204155 62 65 2.6 4.3 0.00 0.00 0.00 76 1015.7
20260507203655 62 64 2.6 3.5 0.00 0.00 0.00 77 1015.8
20260507203155 62 62 2.6 4.3 0.00 0.00 0.00 77 1015.8
20260507202655 62 68 2.6 4.3 0.00 0.00 0.00 77 1015.8
20260507202155 62 69 2.6 3.5 0.00 0.00 0.00 77 1015.7
20260507201655 62 61 3.5 5.2 0.00 0.00 0.00 77 1015.6
20260507201155 62 67 2.6 3.5 0.00 0.00 0.00 78 1015.7
20260507200655 62 65 1.7 3.5 0.00 0.00 0.00 78 1015.5
20260507200155 62 65 2.6 4.3 0.00 0.00 0.00 79 1015.4
20260507195655 62 74 1.7 2.6 0.00 0.00 0.00 79 1015.5
20260507195154 62 74 1.7 1.7 0.00 0.00 0.00 79 1015.4
20260507194654 62 76 2.6 3.5 0.00 0.00 0.00 79 1015.4
20260507194154 62 69 2.6 2.6 0.00 0.00 0.00 79 1015.2
20260507193654 62 68 0.9 3.5 0.00 0.00 0.00 79 1015.1
20260507193154 62 72 1.7 3.5 0.00 0.00 0.00 79 1015.0
20260507192654 63 60 1.7 3.5 0.00 0.00 0.00 79 1014.9
20260507192154 63 61 2.6 4.3 0.00 0.00 0.00 79 1014.8
20260507191654 63 67 3.5 5.2 0.00 0.00 0.00 78 1014.6
20260507191154 63 61 1.7 3.5 0.00 0.00 0.00 76 1014.6
20260507190654 63 64 2.6 4.3 0.00 0.00 0.00 74 1014.5
20260507190154 64 75 1.7 2.6 0.00 0.00 0.00 73 1014.5
20260507185654 64 91 0.9 1.7 0.00 0.00 0.00 73 1014.4
20260507185153 64 76 0.9 2.6 0.00 0.00 0.00 72 1014.3
20260507184653 64 78 1.7 3.5 0.00 0.00 0.00 72 1014.2
20260507184153 64 67 0.9 2.6 0.00 0.00 0.00 71 1014.2
20260507183653 65 61 0.9 2.6 0.00 0.00 0.00 70 1014.1
20260507183153 65 96 0.9 2.6 0.00 0.00 0.00 70 1014.1
20260507182653 65 70 1.7 2.6 0.00 0.00 0.00 70 1014.0
20260507182153 65 77 1.7 2.6 0.00 0.00 0.00 72 1014.1
20260507181653 65 75 0.9 4.3 0.00 0.00 0.00 72 1013.9
20260507181153 65 71 2.6 4.3 0.00 0.00 0.00 72 1013.9
20260507180653 66 63 1.7 2.6 0.00 0.00 0.00 71 1013.9
20260507180153 66 87 2.6 4.3 0.00 0.00 0.00 70 1013.8
20260507175653 66 83 1.7 3.5 0.00 0.00 0.00 70 1013.7
20260507175152 66 83 3.5 5.2 0.00 0.00 0.00 69 1013.5
20260507174652 66 67 1.7 7.0 0.00 0.00 0.00 68 1013.6
20260507174151 66 82 1.7 3.5 0.00 0.00 0.00 69 1013.5
20260507173651 66 67 1.7 3.5 0.00 0.00 0.00 69 1013.4
20260507173150 66 73 2.6 4.3 0.00 0.00 0.00 69 1013.3
20260507172650 66 65 2.6 3.5 0.00 0.00 0.00 70 1013.2
20260507172150 66 57 2.6 5.2 0.00 0.00 0.00 69 1013.2
20260507171649 66 73 3.5 4.3 0.00 0.00 0.00 70 1013.2
20260507171149 66 69 2.6 5.2 0.00 0.00 0.00 70 1013.2
20260507170648 66 58 2.6 6.1 0.00 0.00 0.00 70 1013.2
20260507170148 66 68 3.5 5.2 0.00 0.00 0.00 70 1013.2
20260507165647 66 65 4.3 6.1 0.00 0.00 0.00 69 1013.3
20260507165147 66 59 4.3 7.0 0.00 0.00 0.00 69 1013.2
20260507164647 67 72 3.5 6.1 0.00 0.00 0.00 68 1013.2
20260507164146 67 79 3.5 7.0 0.00 0.00 0.00 68 1013.1
20260507163646 68 85 3.5 5.2 0.00 0.00 0.00 68 1013.1
20260507163145 68 79 4.3 7.8 0.00 0.00 0.00 66 1013.2
20260507162645 68 65 4.3 7.0 0.00 0.00 0.00 66 1013.2
20260507162145 68 66 4.3 7.0 0.00 0.00 0.00 66 1013.2
20260507161644 68 77 4.3 6.1 0.00 0.00 0.00 67 1013.2
20260507161144 68 62 2.6 4.3 0.00 0.00 0.00 67 1013.1
20260507160643 68 66 3.5 5.2 0.00 0.00 0.00 69 1013.1
20260507160143 67 64 2.6 5.2 0.00 0.00 0.00 69 1013.1
20260507155642 68 69 4.3 7.0 0.00 0.00 0.00 68 1013.1
20260507155142 67 69 4.3 5.2 0.00 0.00 0.00 69 1013.0
20260507154642 68 66 6.1 7.8 0.00 0.00 0.00 68 1013.0
20260507154141 69 63 4.3 6.1 0.00 0.00 0.00 65 1012.8
20260507153641 71 69 1.7 3.5 0.00 0.00 0.00 59 1012.8
20260507153140 70 73 2.6 4.3 0.00 0.00 0.00 58 1012.8
20260507152640 70 74 2.6 4.3 0.00 0.00 0.00 57 1012.8
20260507152140 69 62 4.3 7.0 0.00 0.00 0.00 57 1012.8
20260507151639 70 80 1.7 3.5 0.00 0.00 0.00 56 1012.8
20260507151139 70 56 0.9 5.2 0.00 0.00 0.00 56 1012.8
20260507150639 69 66 3.5 5.2 0.00 0.00 0.00 56 1012.8
20260507150139 68 74 2.6 4.3 0.00 0.00 0.00 57 1012.7
20260507145639 68 57 0.9 2.6 0.00 0.00 0.00 57 1012.6
20260507145139 68 330 0.0 0.9 0.00 0.00 0.00 58 1012.4
20260507144639 68 285 0.0 0.9 0.00 0.00 0.00 59 1012.5
20260507144139 68 292 0.9 1.7 0.00 0.00 0.00 58 1012.5
20260507143639 68 289 1.7 3.5 0.00 0.00 0.00 58 1012.4
20260507143138 68 311 0.9 2.6 0.00 0.00 0.00 58 1012.4
20260507142137 68 307 2.6 4.3 0.00 0.00 0.00 57 1012.6
20260507141637 68 317 3.5 5.2 0.00 0.00 0.00 56 1012.6
20260507141136 68 322 2.6 5.2 0.00 0.00 0.00 56 1012.5
20260507140636 69 310 3.5 6.1 0.00 0.00 0.00 56 1012.7
20260507140136 71 281 2.6 7.0 0.00 0.00 0.00 54 1012.6
20260507135635 73 235 0.9 4.3 0.00 0.00 0.00 48 1012.6
20260507135135 73 238 0.9 2.6 0.00 0.00 0.00 49 1012.5
20260507134634 74 285 0.0 1.7 0.00 0.00 0.00 48 1012.5
20260507134134 75 207 1.7 4.3 0.00 0.01 0.00 48 1012.6
20260507133634 76 41 1.7 3.5 0.00 0.01 0.00 47 1012.7
20260507133133 75 214 0.9 2.6 0.00 0.03 0.00 50 1012.7
20260507132633 74 186 0.9 2.6 0.00 0.04 0.00 50 1012.6
20260507132132 74 176 1.7 4.3 0.00 0.04 0.00 48 1012.6
20260507131632 73 228 2.6 4.3 0.00 0.06 0.00 49 1012.6
20260507131131 75 224 3.5 5.2 0.00 0.06 0.00 50 1012.6
20260507130631 75 221 0.0 3.5 0.00 0.09 0.00 46 1012.6
20260507130131 74 228 3.5 5.2 0.00 0.12 0.00 48 1012.6
20260507125130 74 264 1.7 2.6 0.00 0.12 0.00 50 1012.7
20260507124629 73 261 1.7 3.5 0.00 0.12 0.00 49 1012.8
20260507124129 72 257 2.6 5.2 0.00 0.12 0.00 54 1012.7
20260507123629 71 237 1.7 2.6 0.00 0.12 0.00 56 1012.7
20260507123128 71 240 1.7 2.6 0.00 0.12 0.00 56 1012.7
20260507122127 72 3 0.0 1.7 0.00 0.12 0.00 54 1012.8
20260507121627 74 151 2.6 4.3 0.00 0.12 0.00 51 1012.8
20260507121126 74 230 1.7 4.3 0.00 0.12 0.00 52 1012.8
20260507120626 73 279 0.9 3.5 0.00 0.12 0.00 52 1012.8
20260507120126 73 214 1.7 3.5 0.00 0.12 0.00 56 1012.8
20260507115625 73 85 2.6 4.3 0.00 0.12 0.00 55 1012.8
20260507115125 73 232 0.0 1.7 0.00 0.12 0.00 55 1012.8
20260507114624 73 253 2.6 5.2 0.00 0.12 0.00 55 1012.9
20260507114124 72 140 0.9 4.3 0.00 0.12 0.00 59 1012.9
20260507113624 71 161 0.9 1.7 0.00 0.12 0.00 59 1013.0
20260507113123 71 228 2.6 5.2 0.00 0.12 0.00 61 1013.1
20260507112623 70 223 0.9 2.6 0.00 0.12 0.00 61 1013.1
20260507112122 69 158 1.7 2.6 0.00 0.12 0.00 62 1013.1
20260507111622 69 225 0.9 2.6 0.00 0.12 0.00 61 1013.2
20260507111122 69 232 0.9 2.6 0.00 0.12 0.00 61 1013.3
20260507110621 70 218 3.5 4.3 0.00 0.12 0.00 61 1013.2
20260507110121 71 146 0.0 0.9 0.00 0.12 0.00 58 1013.3
20260507105620 71 77 0.0 0.9 0.00 0.12 0.00 57 1013.3
20260507105120 71 245 0.0 1.7 0.00 0.12 0.00 59 1013.4
20260507104620 70 271 2.6 4.3 0.00 0.12 0.00 60 1013.6
20260507104119 70 246 1.7 4.3 0.00 0.12 0.00 59 1013.5
20260507103118 69 231 0.9 4.3 0.00 0.12 0.00 59 1013.6
20260507102618 68 226 1.7 3.5 0.00 0.12 0.00 61 1013.6
20260507102117 68 235 1.7 4.3 0.00 0.12 0.00 60 1013.7
20260507101617 69 233 0.0 0.0 0.00 0.12 0.00 59 1013.7
20260507101117 70 188 0.9 3.5 0.00 0.12 0.00 59 1013.8
20260507100616 70 232 0.9 1.7 0.00 0.14 0.00 57 1013.9
20260507100116 69 252 0.9 0.9 0.00 0.14 0.00 60 1013.9
20260507095615 68 244 0.9 2.6 0.00 0.14 0.00 60 1013.9
20260507095115 68 245 1.7 4.3 0.00 0.14 0.00 60 1013.9
20260507094615 68 231 0.9 3.5 0.00 0.14 0.00 62 1013.8
20260507094114 68 299 1.7 2.6 0.00 0.15 0.00 61 1013.9
20260507093113 67 273 0.9 1.7 0.00 0.15 0.00 65 1013.9
20260507092613 68 263 1.7 3.5 0.00 0.15 0.00 64 1013.9
20260507092113 68 271 1.7 4.3 0.00 0.15 0.00 63 1013.9
20260507091612 68 262 0.9 1.7 0.00 0.15 0.00 60 1013.8
20260507091112 67 240 0.9 2.6 0.00 0.15 0.00 65 1013.8
20260507090111 68 258 0.0 0.9 0.00 0.15 0.00 67 1013.9
20260507085610 69 236 0.9 1.7 0.00 0.15 0.00 67 1013.7
20260507085110 68 210 0.0 2.6 0.00 0.15 0.00 69 1013.8
20260507084610 66 230 0.0 2.6 0.00 0.15 0.00 73 1013.8
20260507084109 66 237 1.7 2.6 0.00 0.15 0.00 72 1013.7
20260507083609 65 226 0.0 0.9 0.00 0.15 0.00 74 1013.7
20260507083108 66 258 0.9 2.6 0.00 0.15 0.00 73 1013.8
20260507082608 66 268 0.9 1.7 0.00 0.15 0.00 73 1013.7
20260507082108 65 292 0.9 1.7 0.00 0.15 0.00 75 1013.6
20260507081607 64 252 0.0 0.0 0.00 0.15 0.00 77 1013.7
20260507081107 64 239 0.0 0.9 0.00 0.15 0.00 81 1013.7
20260507080606 64 238 0.9 0.9 0.00 0.15 0.00 80 1013.7
20260507080106 64 223 0.9 3.5 0.00 0.15 0.00 80 1013.6
20260507075605 63 233 0.0 1.7 0.00 0.15 0.00 82 1013.6
20260507075105 63 233 1.7 2.6 0.00 0.15 0.00 83 1013.6
20260507074733 65 229 0.9 1.7 0.00 0.15 0.00 80 1013.5
20260507074605 64 266 0.9 0.9 0.00 0.15 0.00 82 1013.6
20260507074104 65 229 0.9 1.7 0.00 0.15 0.00 80 1013.5
20260507073604 63 227 0.0 0.9 0.00 0.15 0.00 82 1013.5
20260507073103 62 227 0.0 2.6 0.00 0.15 0.00 87 1013.5
20260507072603 62 240 0.9 2.6 0.00 0.15 0.00 88 1013.6
20260507072103 62 236 2.6 4.3 0.00 0.15 0.00 88 1013.5
20260507071602 62 235 1.7 3.5 0.00 0.15 0.00 87 1013.3
20260507071102 63 261 2.6 3.5 0.00 0.15 0.00 84 1013.3
20260507070601 66 289 0.0 0.9 0.00 0.15 0.00 77 1013.2
20260507070101 65 344 0.0 0.0 0.00 0.15 0.00 78 1013.2
20260507065600 66 309 0.0 1.7 0.00 0.15 0.00 77 1013.2
20260507065100 66 4 0.0 0.9 0.00 0.15 0.00 77 1013.3
20260507064600 65 53 0.0 0.0 0.00 0.15 0.00 77 1013.2
20260507064059 64 53 1.7 1.7 0.00 0.15 0.00 81 1013.1
20260507063559 64 53 0.0 0.0 0.00 0.15 0.00 82 1013.1
20260507063058 64 54 0.0 0.9 0.00 0.15 0.00 81 1013.1
20260507062558 64 13 0.0 1.7 0.00 0.15 0.00 83 1013.1
20260507062058 66 275 0.0 0.0 0.00 0.15 0.00 79 1013.1
20260507061557 66 276 0.0 0.0 0.00 0.15 0.00 77 1013.1
20260507061057 64 270 0.0 0.0 0.00 0.15 0.00 82 1013.2
20260507060557 64 270 0.0 0.0 0.00 0.15 0.00 84 1013.1
20260507060057 63 270 0.0 0.0 0.00 0.15 0.00 84 1013.1
20260507055557 61 270 0.0 0.0 0.00 0.15 0.00 90 1013.0
20260507055057 59 270 0.0 0.0 0.00 0.15 0.00 93 1013.0
20260507054557 59 270 0.0 0.0 0.00 0.17 0.00 94 1012.9
20260507054056 58 270 0.0 0.9 0.00 0.17 0.00 95 1012.8
20260507053557 58 276 0.0 0.0 0.00 0.17 0.00 95 1012.8
20260507053057 57 276 0.0 0.0 0.00 0.17 0.00 96 1012.8
20260507052557 57 276 0.0 0.9 0.00 0.17 0.00 96 1012.8
20260507052057 57 276 0.9 0.9 0.00 0.17 0.00 95 1012.8
20260507051557 57 282 0.0 0.0 0.00 0.17 0.00 96 1012.7
20260507051057 57 282 0.0 0.0 0.00 0.17 0.00 96 1012.7
20260507050557 57 282 0.0 0.0 0.00 0.17 0.00 96 1012.6
20260507050057 57 282 0.0 0.0 0.00 0.17 0.00 96 1012.5
20260507045557 56 282 0.0 0.0 0.00 0.17 0.00 96 1012.6
20260507045057 56 282 0.0 0.0 0.00 0.18 0.00 96 1012.5
20260507044557 56 282 0.0 0.0 0.00 0.18 0.00 96 1012.3
20260507044057 56 282 0.0 0.0 0.00 0.18 0.00 96 1012.4
20260507043558 55 282 0.0 0.9 0.00 0.18 0.00 96 1012.3
20260507043057 55 285 0.0 0.0 0.00 0.18 0.00 96 1012.3
20260507042557 56 285 0.0 0.0 0.00 0.18 0.00 96 1012.2
20260507042057 56 285 0.0 0.0 0.00 0.18 0.00 96 1012.1
20260507041557 55 285 0.0 0.0 0.00 0.18 0.00 96 1012.1
20260507041057 55 285 0.0 0.0 0.00 0.18 0.00 96 1011.9
20260507040557 55 285 0.0 0.0 0.00 0.18 0.00 96 1011.9
20260507040057 55 285 0.0 0.0 0.00 0.18 0.00 96 1011.9
20260507035557 55 285 0.0 0.0 0.00 0.18 0.00 96 1011.9
20260507035057 55 285 0.0 0.0 0.00 0.18 0.00 96 1011.8
20260507034557 55 285 0.0 0.0 0.00 0.18 0.00 96 1011.8
20260507034057 55 285 0.0 0.0 0.00 0.18 0.00 96 1011.7
20260507033556 55 285 0.0 0.0 0.00 0.18 0.00 96 1011.7
20260507033056 55 285 0.0 0.0 0.00 0.18 0.00 96 1011.8
20260507032556 55 285 0.0 0.0 0.00 0.18 0.00 96 1011.8
20260507032055 55 285 0.0 0.0 0.00 0.18 0.00 96 1011.8
20260507031555 55 285 0.0 0.0 0.00 0.18 0.00 96 1011.8
20260507031055 55 285 0.0 0.0 0.00 0.18 0.00 96 1011.8
20260507030555 55 285 0.0 0.0 0.00 0.18 0.00 96 1011.8
20260507030055 55 285 0.0 0.0 0.00 0.18 0.00 96 1011.7
20260507025554 55 285 0.0 0.0 0.00 0.18 0.00 96 1011.7
20260507025054 55 285 0.0 0.0 0.00 0.18 0.00 96 1011.7
20260507024554 55 285 0.0 0.0 0.00 0.18 0.00 96 1011.7
20260507024054 56 285 0.0 0.0 0.00 0.18 0.00 96 1011.7
20260507023554 56 285 0.0 0.0 0.00 0.18 0.00 96 1011.7
20260507023054 56 285 0.0 0.0 0.00 0.18 0.00 96 1011.6
20260507022554 56 285 0.0 0.0 0.00 0.18 0.00 96 1011.7
20260507022054 56 285 0.0 0.0 0.00 0.18 0.00 96 1011.7
20260507021554 56 285 0.0 0.0 0.00 0.18 0.00 96 1011.6
20260507021054 56 285 0.0 0.0 0.00 0.18 0.00 96 1011.7
20260507020554 56 285 0.0 0.0 0.00 0.18 0.00 96 1011.7
20260507020054 57 285 0.0 0.0 0.00 0.18 0.00 96 1011.6
20260507015553 57 285 0.0 0.0 0.00 0.18 0.00 96 1011.6
20260507015053 57 285 0.0 0.0 0.00 0.18 0.00 96 1011.5
20260507014553 57 285 0.0 0.0 0.00 0.18 0.00 96 1011.4
20260507014053 57 285 0.0 0.9 0.00 0.18 0.00 96 1011.4
20260507013553 57 294 0.9 0.9 0.00 0.18 0.00 96 1011.6
20260507013053 57 300 0.0 0.0 0.00 0.18 0.00 96 1011.6
20260507012552 57 300 0.0 0.0 0.00 0.18 0.00 96 1011.6
20260507012052 57 294 0.0 0.0 0.00 0.18 0.00 95 1011.6
20260507011551 57 294 0.0 0.0 0.00 0.18 0.00 95 1011.6
20260507011051 57 294 0.0 1.7 0.00 0.18 0.00 95 1011.7
20260507010551 58 299 0.0 0.0 0.00 0.18 0.00 95 1011.7
20260507010051 58 299 0.0 0.0 0.00 0.18 0.00 95 1011.6
20260507005551 58 299 0.0 0.9 0.00 0.18 0.00 95 1011.6
20260507005051 58 288 1.7 2.6 0.00 0.18 0.00 95 1011.6
20260507004551 58 288 0.0 0.9 0.00 0.18 0.00 94 1011.7
20260507004051 58 354 0.0 1.7 0.00 0.18 0.00 94 1011.7
20260507003551 58 72 0.9 0.9 0.00 0.18 0.00 94 1011.6
20260507003051 58 72 0.0 0.0 0.00 0.18 0.00 94 1011.5
20260507002551 58 78 0.0 0.0 0.00 0.18 0.00 94 1011.5
20260507002051 58 81 1.7 2.6 0.00 0.18 0.00 94 1011.4
20260507001636 58 73 0.9 1.7 0.00 0.18 0.00 94 1011.4
20260507001550 58 73 0.9 1.7 0.00 0.18 0.00 94 1011.4
20260507001050 58 20 0.0 1.7 0.00 0.18 0.00 94 1011.4
20260507000550 58 24 0.0 0.0 0.00 0.18 0.00 94 1011.4
20260507000049 58 18 0.0 0.0 0.00 0.18 0.00 94 1011.6
20260506235549 58 57 0.0 0.0 0.00 0.18 0.00 94 1011.6
20260506235048 58 57 0.0 0.0 0.00 0.18 0.00 94 1011.7
20260506234548 58 57 0.0 0.0 0.00 0.18 0.00 94 1011.6
20260506234048 58 57 0.0 0.0 0.00 0.18 0.00 94 1011.7
20260506233548 57 57 0.0 0.0 0.00 0.18 0.00 94 1011.6
20260506233047 57 57 0.0 0.0 0.00 0.18 0.00 94 1011.6
20260506232546 57 57 0.9 0.9 0.00 0.18 0.00 94 1011.6
20260506232046 58 66 0.9 0.9 0.00 0.18 0.00 94 1011.5
20260506231546 58 72 0.0 0.0 0.00 0.18 0.00 94 1011.5
20260506231045 58 72 0.0 0.0 0.00 0.18 0.00 94 1011.5
20260506230545 58 72 0.0 0.0 0.00 0.18 0.00 94 1011.6
20260506230044 58 72 0.0 0.9 0.00 0.18 0.00 94 1011.5
20260506225544 58 61 0.0 0.0 0.00 0.18 0.00 94 1011.5
20260506225044 58 61 0.0 0.0 0.00 0.18 0.00 94 1011.6
20260506224543 58 61 0.0 0.9 0.00 0.18 0.00 93 1011.5
20260506224043 58 61 0.9 0.9 0.00 0.18 0.00 93 1011.5
20260506223542 58 61 2.6 3.5 0.00 0.18 0.00 93 1011.5
20260506223042 58 56 0.0 0.9 0.00 0.18 0.00 93 1011.5
20260506222541 58 56 0.0 0.0 0.00 0.18 0.00 93 1011.5
20260506222041 58 60 0.0 0.9 0.00 0.18 0.00 93 1011.6
20260506221541 58 56 0.0 0.0 0.00 0.18 0.00 93 1011.6
20260506221040 58 56 0.0 0.0 0.00 0.18 0.00 93 1011.6
20260506220540 58 56 0.0 0.0 0.00 0.18 0.00 93 1011.5
20260506220039 58 56 0.0 0.0 0.00 0.18 0.00 93 1011.4
20260506215539 58 63 0.0 0.0 0.00 0.18 0.18 93 1011.4
20260506214538 58 67 0.0 0.9 0.00 0.18 0.18 93 1011.4
20260506214038 59 72 0.0 0.0 0.00 0.18 0.18 92 1011.3
20260506213537 59 72 0.0 0.0 0.00 0.18 0.18 92 1011.3
20260506213037 59 72 0.0 0.0 0.00 0.18 0.18 92 1011.4
20260506212537 59 70 0.0 0.9 0.00 0.18 0.18 92 1011.4
20260506211536 59 70 0.0 0.9 0.00 0.18 0.18 92 1011.5